Terminal Aerodrome Forecast
Issued by NWS

Home | Current Version | Previous Version | Text Only | Print | Product List | Glossary Off
Versions: 1 2 3 4 5 6 7 8 9 10 11 12 13 14 15 16 17 18 19 20 21

000
FTUS43 KBIS 130500
TAFJMS
TAF
KJMS 130540Z 1306/1406 31005KT P6SM SCT080
     FM130730 30006KT P6SM SKC
     FM131400 31016KT P6SM SKC
     FM131700 32020G30KT P6SM SKC
     FM132100 32021G30KT P6SM SCT060
     FM140300 34009KT P6SM SCT045 BKN060=

USA.gov is the U.S. government's official web portal to all federal, state and local government web resources and services.